Home   Weather   Riga   Past weeks

Flag for Latvia Past Weather in Riga, Latvia — Yesterday and Last 2 Weeks

Now
18 °F

Passing clouds.


Feels Like: 18 °F
Forecast: 21 / 33 °F
Wind: 2 mph from Southwest

Location: Riga Airport

Current Time: Jan 17, 2017 at 7:19:10 am

Latest Report: Jan 17, 2017 at 6:50 am


Visibility: N/A

Pressure: 30.45 "Hg

Humidity: 100%

Dew Point: 18 °F

Location of RigaLocation

Past Weather in Riga — Graph

°F

Riga Temperature Yesterday

Maximum temperature yesterday: 27 °F (at 12:20 am)
Minimum temperature yesterday: 14 °F (at 7:20 am)
Average temperature yesterday: 22 °F

High & Low Weather Summary for the Past Weeks

 TemperatureHumidityPressure
High36 °F (Jan 2, 5:20 am)100% (Jan 2, 7:20 am)30.66 "Hg (Jan 2, 7:20 am)
Low-6 °F (Jan 7, 2:20 am)67% (Jan 5, 3:20 pm)28.94 "Hg (Jan 4, 7:20 am)
Average22 °F93%29.86 "Hg
* Reported Jan 2 5:20 am — Jan 17 5:50 am, Riga, Weather by CustomWeather, © 2017

Note: Actual official high and low records may vary slightly from our data, if they occured in-between our weather recording intervals... More about our weather records

Advertising

Riga Weather History for the Previous 24 Hours

Scroll right to see more
 ConditionsComfort  
Time TempWeatherWind HumidityBarometerVisibility
5:50 am
Tue, Jan 17
19 °FPassing clouds.1 mph100%30.42 "Hg1 mi
5:20 am23 °FOvercast.No wind100%30.42 "HgN/A
4:50 am25 °FOvercast.1 mph100%30.42 "HgN/A
4:20 am25 °FOvercast.1 mph100%30.42 "HgN/A
3:50 am25 °FOvercast.No wind100%30.42 "HgN/A
3:20 am25 °FMostly cloudy.No wind100%30.39 "HgN/A
2:50 am25 °FMostly cloudy.No wind100%30.39 "HgN/A
2:20 am25 °FOvercast.No wind100%30.39 "HgN/A
1:50 am25 °FOvercast.No wind100%30.39 "HgN/A
1:20 am25 °FLight snow. Overcast.No wind100%30.36 "HgN/A
12:50 am25 °FMostly cloudy.No wind100%30.36 "HgN/A
12:20 am25 °FOvercast.5 mph100%30.36 "HgN/A
11:50 pm
Mon, Jan 16
25 °FOvercast.3 mph100%30.33 "HgN/A
11:20 pm25 °FOvercast.2 mph100%30.33 "HgN/A
10:50 pm25 °FOvercast.3 mph100%30.33 "HgN/A
10:20 pm25 °FMostly cloudy.No wind100%30.33 "HgN/A
9:50 pm25 °FMostly cloudy.2 mph100%30.30 "HgN/A
9:20 pm23 °FMostly cloudy.2 mph100%30.30 "HgN/A
8:50 pm23 °FOvercast.3 mph100%30.30 "HgN/A
8:20 pm23 °FOvercast.No wind100%30.27 "Hg6 mi
7:50 pm23 °FOvercast.2 mph100%30.27 "HgN/A
7:20 pm23 °FOvercast.No wind100%30.27 "Hg5 mi
6:50 pm23 °FOvercast.No wind100%30.24 "Hg6 mi
6:20 pm23 °FPassing clouds.2 mph100%30.24 "Hg6 mi
5:50 pm23 °FPassing clouds.1 mph100%30.24 "HgN/A
5:20 pm23 °FPassing clouds.No wind100%30.24 "Hg5 mi
4:50 pm23 °FLight snow. Overcast.2 mph100%30.21 "Hg5 mi
4:20 pm23 °FFog.No wind100%30.21 "Hg4 mi
3:50 pm21 °FIce fog.3 mph100%30.21 "Hg2 mi
3:20 pm21 °FIce fog.No wind100%30.18 "Hg1 mi
2:50 pm21 °FIce fog.3 mph100%30.18 "Hg2 mi
2:20 pm23 °FScattered clouds.2 mph100%30.18 "Hg4 mi
1:50 pm25 °FPartly sunny.3 mph100%30.18 "Hg6 mi
1:20 pm25 °FPartly sunny.2 mph100%30.15 "Hg6 mi
12:50 pm23 °FPartly sunny.5 mph100%30.15 "HgN/A
12:20 pm23 °FPartly sunny.5 mph100%30.15 "HgN/A
11:50 am23 °FPartly sunny.2 mph100%30.15 "HgN/A
11:20 am23 °FPartly sunny.2 mph100%30.15 "HgN/A
10:50 am21 °FPartly sunny.2 mph100%30.12 "HgN/A
10:20 am19 °FPartly sunny.2 mph100%30.12 "HgN/A
9:50 am19 °FMore clouds than sun.3 mph100%30.12 "HgN/A
9:20 am19 °FMore clouds than sun.3 mph100%30.09 "HgN/A
8:50 am18 °FLight snow. Ice fog.3 mph100%30.09 "Hg2 mi
8:20 am14 °FPartly cloudy.3 mph100%30.09 "HgN/A
7:50 am16 °FFog.No wind100%30.07 "Hg5 mi
7:20 am14 °FPassing clouds.1 mph100%30.07 "HgN/A
Weather by CustomWeather, © 2017

See weather overviewHow to use our weather pages